Regional Weather Roundup
Issued by NWS

Home | Current Version | Previous Version | Text Only | Print | Product List | Glossary Off
Versions: 1 2 3 4 5 6 7 8 9 10 11 12 13 14 15 16 17 18 19 20 21 22 23 24 25 26 27 28 29 30 31 32 33 34 35 36 37 38 39 40 41 42 43 44 45 46 47 48 49 50

044
ASUS45 KABQ 071810
RWRNM
NEW MEXICO REGIONAL WEATHER ROUNDUP
NATIONAL WEATHER SERVICE ALBUQUERQUE NM
1100 AM MST WED DEC 07 2016

NOTE: "FAIR" MEANS FEW OR NO CLOUDS BELOW 12,000 FEET AGL WITH NO
       SIGNIFICANT WEATHER OR OBSTRUCTIONS TO VISION.

      THIS PRODUCT IS RELEASED AS TWO VERSIONS.  ONE VERSION NEAR
      THE TOP OF THE HOUR CONTAINING PRELIMINARY DATA FROM ALBUQUERQUE
      AND OTHER STATIONS.  A FINAL VERSION WITH ADDITIONAL DATA IS
      ISSUED ABOUT 10 MINUTES AFTER THE HOUR.

NMZ501-503-504-510>518-071900-
NORTHWEST PLATEAU/NORTHCENTRAL MOUNTAINS

CITY           SKY/WX    TMP DP  RH WIND       PRES   REMARKS
FARMINGTON     FAIR      34   7  32 W13       30.09S WCI  25
6HR MIN TEMP:  25; 6HR MAX TEMP:  34;

LOS ALAMOS     CLOUDY    33  22  62 NE7       30.03S WCI  27
SANTA FE       PTSUNNY   42  20  41 W20       30.02S
6HR MIN TEMP:  25; 6HR MAX TEMP:  42;

TAOS           CLOUDY    32  10  40 SW15G23   30.01S WCI  22
ANGEL FIRE     LGT SNOW  25  16  68 SW8G24    29.99S WCI  16

$$
NMZ402-403-502-505>509-071900-
WESTCENTRAL MOUNTAINS/SOUTHWEST MOUNTAINS

CITY           SKY/WX    TMP DP  RH WIND       PRES   REMARKS
GALLUP         CLOUDY    34  21  59 N9        30.08F WCI  27
6HR MIN TEMP:  26; 6HR MAX TEMP:  35;

GRANTS         FAIR      36  22  56 N12       30.07F WCI  28
SILVER CITY    FAIR      51  30  45 W18       30.08S

$$
NMZ407-409-411-412-071900-
SOUTHERN DESERTS

CITY           SKY/WX    TMP DP  RH WIND       PRES   REMARKS
DEMING         FAIR      52  33  48 W12       30.06F
6HR MIN TEMP:  37; 6HR MAX TEMP:  52;

LAS CRUCES     FAIR      51  32  47 SW12      30.07F
HOLLOMAN AFB   FAIR      58  28  32 CALM      30.05F
T OR C         FAIR      56  22  26 N8        30.02F
6HR MIN TEMP:  36; 6HR MAX TEMP:  56;


$$
NMZ519>523-071900-
CENTRAL VALLEYS/CENTRAL HIGHLANDS

CITY           SKY/WX    TMP DP  RH WIND       PRES   REMARKS
ALBUQUERQUE    PTSUNNY   43  24  47 N8        30.06S
6HR MIN TEMP:  35; 6HR MAX TEMP:  44;

DOUBLE EAGLE   PTSUNNY   39  21  48 NW15      30.07R WCI  31
MORIARTY ARPT  CLOUDY    44  24  44 NW15G21   30.04S
6HR MIN TEMP:  35; 6HR MAX TEMP:  45;

CLINES CORNERS FAIR      39  22  50 NW29G37   30.00F WCI  27
6HR MIN TEMP:  29; 6HR MAX TEMP:  39;

BELEN          CLOUDY    48  27  44 NW10G16   30.04S
6HR MIN TEMP:  30; 6HR MAX TEMP:  51;

SOCORRO        FAIR      52  24  33 SW3       30.03F
6HR MIN TEMP:  32; 6HR MAX TEMP:  52;


$$
NMZ524>526-539-540-071900-
SOUTHCENTRAL MOUNTAINS

CITY           SKY/WX    TMP DP  RH WIND       PRES   REMARKS
RUIDOSO        FAIR      50  19  29 E12       30.02F

$$
NMZ527>531-071900-
NORTHEAST HIGHLANDS/NORTHEAST PLAINS

CITY           SKY/WX    TMP DP  RH WIND       PRES   REMARKS
LAS VEGAS      FAIR      43  12  28 W20G29    29.95R
6HR MIN TEMP:  29; 6HR MAX TEMP:  44;

RATON          FAIR      28   8  43 NE21G29   29.98R WCI  15
6HR MIN TEMP:   8; 6HR MAX TEMP:  30;

CLAYTON        FAIR      32  14  47 NW26G35   30.04S WCI  18
6HR MIN TEMP:  17; 6HR MAX TEMP:  32;


$$
NMZ532>537-071900-
EASTCENTRAL PLAINS

CITY           SKY/WX    TMP DP  RH WIND       PRES   REMARKS
TUCUMCARI      FAIR      38  12  34 E20       30.05R WCI  28
6HR MIN TEMP:  24; 6HR MAX TEMP:  38;

CANNON AFB     FAIR      48  31  52 NW10      30.00F
6HR MIN TEMP:  22; 6HR MAX TEMP:  48;

CLOVIS AIRPORT FAIR      46  30  53 N13G20    30.02R

$$
NMZ028-029-538-071900-
SOUTHEAST PLAINS

CITY           SKY/WX    TMP DP  RH WIND       PRES   REMARKS
ROSWELL        FAIR      39  30  70 NE8       29.99F WCI  33
6HR MIN TEMP:  26; 6HR MAX TEMP:  39;

ARTESIA        FAIR      37  36  93 N13       30.00S WCI  29
CARLSBAD       FAIR      44  39  82 S5        29.96F
6HR MIN TEMP:  32; 6HR MAX TEMP:  44;

HOBBS          SUNNY     45  41  87 CALM      30.01S


$$




USA.gov is the U.S. government's official web portal to all federal, state and local government web resources and services.